Theta_e
331 331 332 330 330 335 335 332 331 330 330 328 329 331 332 333 335 334 334 336 336 334 334 334 336 336 339 336 335 337 336 335 335 333 334 334 331 332 333 330 329 331
331 335 338 333 337 337 333 333 332 329 329 331 329 330 331 334 334 335 334 335 336 334 333 333 333 333 332 333 333 333 332 333 334 339 335 333 332 332 332 330 328 328
332 335 335 333 333 332 329 329 332 328 329 329 329 330 331 335 332 332 333 334 333 332 332 332 331 333 333 332 333 333 334 332 334 334 336 334 334 334 333 331 329 329
332 334 333 332 332 331 329 330 331 329 328 329 330 333 335 335 333 332 332 341 333 332 332 332 332 332 331 331 331 331 332 333 334 333 334 335 335 334 332 331 331 329
332 331 331 331 332 332 331 331 329 329 329 329 330 331 335 333 332 330 330 332 331 331 331 332 330 330 331 331 331 331 332 333 333 332 332 332 333 334 333 333 330 328
333 331 331 330 331 332 331 331 330 329 329 329 330 334 333 332 331 332 332 330 331 331 330 328 328 329 330 330 329 330 330 333 333 333 332 331 331 333 335 334 330 328
333 331 331 331 332 332 331 329 329 332 330 330 331 332 334 333 332 332 331 331 329 331 329 328 328 329 330 330 329 330 330 330 332 332 332 332 332 331 333 333 331 329
332 333 332 332 332 332 330 329 329 330 330 330 330 331 332 332 330 330 331 330 330 329 330 330 330 329 330 328 329 328 329 331 332 330 331 332 331 331 331 333 331 329
333 333 332 331 332 331 330 329 329 329 331 331 331 330 331 330 330 330 330 330 329 329 328 329 329 328 329 329 329 328 327 327 331 331 330 329 329 329 330 331 330 330
333 333 332 331 330 331 331 330 331 331 333 332 331 330 330 332 332 331 331 329 329 329 329 327 327 327 328 329 329 328 329 329 329 329 328 328 328 329 330 328 328 327
333 332 331 330 330 331 331 331 331 331 331 332 331 331 331 331 332 332 330 330 330 329 327 326 326 327 327 328 329 330 329 329 329 328 326 326 327 328 330 328 327 327
333 332 332 331 330 331 331 332 331 331 330 332 332 331 331 330 330 329 331 328 327 326 326 327 327 327 328 328 330 330 330 329 328 327 327 327 327 328 328 328 328 328
332 333 332 332 332 331 332 332 332 331 330 330 332 331 329 328 327 325 327 328 327 326 326 326 327 327 326 329 330 329 329 328 326 326 327 328 328 329 329 329 329 329
333 333 332 332 333 332 332 332 331 329 327 327 329 327 326 326 325 326 326 328 326 326 327 329 327 326 326 329 329 329 328 327 326 326 325 325 325 326 327 328 329 329
334 333 333 333 334 332 331 330 330 329 327 327 328 326 327 325 326 327 326 326 327 327 327 327 327 329 331 330 329 328 327 327 327 327 326 325 325 325 325 325 325 326
333 333 333 332 332 331 331 330 329 328 328 327 329 329 329 330 327 328 327 327 327 326 326 326 328 329 332 331 331 330 327 328 327 326 326 326 327 326 326 326 326 326
332 332 332 331 331 331 331 331 330 329 328 328 328 328 328 329 330 328 328 329 328 327 325 327 329 330 329 326 327 331 330 326 326 327 327 327 327 326 326 326 324 322
332 332 331 331 331 331 331 331 330 329 328 328 328 328 329 330 329 330 329 329 330 327 325 325 327 328 325 325 326 326 330 329 326 326 326 325 325 324 323 322 322 323
332 332 331 330 330 331 331 330 328 328 328 328 328 329 329 329 330 330 330 329 329 327 326 325 325 326 324 324 324 324 325 327 324 324 324 324 322 323 323 323 324 324
333 332 331 330 331 331 330 329 328 328 328 329 329 330 330 329 330 330 330 329 329 328 328 326 324 324 323 321 321 321 322 324 323 323 322 321 322 322 323 323 324 324
335 333 332 331 331 331 330 329 329 328 328 329 329 329 329 329 330 330 330 331 330 329 327 325 325 323 320 319 318 317 319 323 320 322 319 319 320 321 322 323 324 325
335 334 333 332 331 330 329 329 328 328 328 329 329 328 329 329 329 330 330 329 329 328 326 325 327 324 320 318 316 316 319 323 319 318 317 318 320 322 323 324 324 324
334 333 332 331 331 329 329 328 328 328 328 329 328 328 328 328 328 329 329 328 327 326 326 326 327 323 317 315 315 315 317 317 317 318 318 319 320 321 322 323 323 323
333 333 332 331 330 329 329 329 329 329 328 330 328 328 328 329 328 325 325 327 326 326 327 326 325 322 314 312 312 314 319 317 317 317 317 319 320 322 322 321 323 330
333 332 331 330 329 329 329 329 328 329 329 329 329 328 327 325 327 324 324 323 323 325 332 324 322 317 311 311 311 312 316 316 316 316 317 319 320 319 319 319 320 323
333 332 331 330 329 329 330 330 330 329 328 328 327 326 325 324 326 325 322 321 323 324 325 322 320 319 320 310 310 311 314 317 317 317 318 318 316 317 318 316 316 318
Wind_Speed
7 6 7 6 6 6 6 5 4 5 4 5 5 4 5 4 3 3 2 2 3 4 3 3 3 2 2 2 2 2 2 3 3 2 3 3 2 2 2 3 1 3
7 6 5 5 4 4 5 5 5 5 4 4 4 4 3 3 4 3 2 3 4 4 4 4 3 3 3 3 3 3 3 3 4 2 3 4 4 3 3 3 2 2
7 6 6 6 6 6 6 5 5 4 5 5 4 3 3 3 4 3 3 4 4 4 4 4 3 3 3 3 3 3 3 3 4 4 3 4 4 3 4 3 4 4
8 8 7 7 6 7 5 5 4 4 3 3 4 4 3 3 4 4 3 4 4 4 3 3 3 3 3 3 3 3 3 4 5 3 3 3 4 5 5 4 4 4
9 7 7 7 6 5 5 5 5 4 4 5 4 3 3 4 4 4 4 3 3 3 3 3 3 3 3 3 2 3 3 4 4 3 4 5 5 4 4 4 5 5
8 8 8 8 6 6 6 6 6 6 5 4 5 4 4 4 4 4 4 4 3 3 3 3 4 4 3 3 3 3 3 4 4 4 4 5 5 5 4 5 6 6
10 8 8 7 6 6 7 7 6 6 6 6 4 5 4 4 4 4 4 4 4 4 4 4 4 4 4 3 3 4 4 4 4 3 4 5 5 5 4 5 6 6
10 9 8 7 7 6 7 7 7 7 6 4 5 6 4 5 5 4 4 4 4 4 4 4 4 4 4 3 4 4 5 3 3 3 5 6 4 5 5 5 5 6
10 9 9 8 8 7 8 8 7 6 5 5 6 6 5 5 5 5 5 4 4 4 4 4 4 5 5 4 4 4 3 3 4 5 5 6 5 5 5 5 4 5
11 9 10 9 9 8 8 7 7 6 5 6 6 5 6 5 5 6 5 4 4 4 5 5 5 5 5 4 4 4 4 6 5 5 4 4 4 5 5 4 5 5
11 11 10 10 9 8 9 8 7 7 6 6 6 5 6 6 5 5 5 4 6 6 5 5 6 5 5 5 4 4 5 5 5 5 4 4 5 5 5 4 5 6
12 11 11 11 10 9 10 9 8 7 7 6 6 7 6 5 6 5 5 6 5 6 5 5 5 5 5 5 4 5 5 5 4 4 4 5 4 5 5 5 5 6
12 12 12 11 10 10 9 8 8 8 7 7 7 7 7 7 6 6 5 5 6 4 5 5 6 4 4 5 5 5 5 5 4 4 5 4 4 5 6 6 6 6
12 12 11 11 10 10 9 9 8 7 7 7 6 7 7 7 7 7 7 5 5 4 5 6 4 4 5 5 6 6 5 5 5 5 4 4 5 5 6 6 6 6
11 9 9 10 10 10 9 9 8 8 7 6 7 7 7 7 6 6 5 4 4 4 4 4 5 6 5 5 6 6 5 5 5 5 4 4 4 4 5 6 6 6
12 9 9 10 10 11 10 9 8 7 6 6 7 7 6 6 6 5 5 6 5 5 5 4 5 4 6 10 9 6 6 5 4 4 4 4 5 6 7 6 6 5
9 8 9 10 11 10 8 8 8 7 6 6 6 7 7 6 6 6 6 6 6 6 6 6 5 5 10 12 12 11 5 4 4 5 4 5 5 6 7 7 6 5
13 12 11 11 10 10 8 8 7 7 7 7 7 7 7 5 6 6 7 6 6 6 6 7 6 9 13 13 13 11 8 6 5 5 5 4 4 5 5 5 6 6
13 12 12 11 11 10 8 7 8 8 8 7 9 8 6 6 7 7 7 7 7 7 7 8 7 10 13 14 12 11 11 8 5 5 5 4 3 4 5 5 5 6
13 12 12 12 11 9 8 8 8 10 9 9 8 6 7 7 7 8 8 7 7 8 8 8 7 10 13 13 12 11 11 8 5 5 3 3 4 4 5 5 5 6
12 12 13 12 11 10 9 10 11 9 9 9 8 9 9 9 9 9 8 8 7 7 7 7 8 11 10 10 10 11 11 7 4 3 3 3 4 4 5 5 5 6
13 14 13 12 11 10 10 11 11 11 11 10 9 8 8 7 7 7 8 8 7 6 6 7 6 7 10 12 11 12 8 4 3 2 3 3 4 4 4 4 4 5
13 13 13 13 12 11 12 12 12 12 11 9 9 9 8 8 8 9 6 4 3 4 6 6 5 8 11 12 11 8 5 3 1 3 3 4 5 4 4 4 4 4
14 14 14 13 11 12 14 14 13 10 10 8 9 9 8 9 3 1 2 4 5 6 6 6 5 4 8 7 8 9 6 3 2 2 4 5 5 4 3 3 4 8
14 14 14 13 13 14 14 13 12 11 9 6 7 7 5 2 3 4 3 3 4 4 5 6 4 4 7 9 9 7 4 2 2 2 3 4 4 4 3 2 4 5
12 14 13 12 13 13 12 12 9 6 5 6 4 3 3 3 3 3 3 2 3 4 5 5 5 3 4 8 5 3 3 2 3 3 3 3 3 3 5 5 4 4
Wind_Direction
160 157 162 164 168 159 161 165 176 162 176 173 160 190 171 202 214 222 213 198 201 201 211 219 219 219 224 227 229 217 234 242 257 234 213 207 213 207 232 248 222 198
167 165 159 153 151 151 158 163 170 163 179 177 188 176 212 198 226 208 194 202 218 214 206 214 217 219 233 237 235 220 249 251 259 234 211 217 230 200 221 217 215 192
163 160 153 157 167 171 169 176 165 178 166 192 191 191 213 220 231 228 206 203 216 229 224 224 229 236 234 242 246 251 257 258 253 247 211 219 220 212 226 201 181 181
168 166 165 169 170 177 177 157 177 180 182 192 212 214 206 213 220 234 222 223 216 231 239 236 229 247 246 254 251 256 256 258 255 246 226 223 217 209 220 197 194 192
170 172 171 171 177 181 170 163 175 188 201 211 224 226 220 234 228 227 228 231 208 231 242 243 245 246 245 251 231 242 253 248 258 241 224 225 229 215 220 194 198 204
175 174 176 175 179 171 179 181 185 189 207 215 227 229 225 224 222 223 219 217 218 217 235 254 265 265 253 246 223 222 236 242 253 230 227 231 243 230 215 201 203 209
177 176 178 179 172 179 184 191 187 190 197 210 215 225 213 212 212 218 217 213 220 227 228 247 251 259 253 244 248 260 258 247 258 242 235 247 243 246 233 213 210 212
177 176 178 174 174 182 187 192 190 191 196 196 210 225 200 202 213 226 229 227 225 235 239 244 247 248 259 248 252 255 262 262 271 260 248 251 241 242 239 228 218 215
171 175 174 173 175 180 188 194 195 198 199 201 217 224 215 209 219 227 236 236 233 240 243 249 247 250 256 253 249 249 266 268 238 233 231 238 237 240 240 234 227 226
175 173 172 176 176 182 191 196 195 202 205 210 217 215 219 228 221 228 234 233 234 243 239 240 255 259 264 264 260 249 235 238 237 236 243 250 251 253 247 230 229 236
178 175 177 181 182 183 196 197 197 206 207 212 217 221 223 223 233 228 232 229 227 230 236 243 249 257 264 267 254 226 225 233 239 237 242 247 246 250 253 239 236 234
179 176 180 185 185 189 197 199 201 208 211 212 205 222 227 220 223 228 216 219 220 230 234 240 245 244 243 245 231 227 230 235 244 248 243 240 241 241 242 243 237 238
175 176 186 184 187 192 196 200 202 202 201 209 209 211 214 218 220 220 225 212 227 224 230 231 238 237 221 214 219 224 229 233 238 237 242 240 242 243 250 246 239 235
177 187 182 183 189 193 196 200 202 199 198 202 196 202 207 212 215 213 220 197 213 218 230 225 217 205 209 214 216 221 226 235 232 237 240 244 249 255 251 249 246 244
182 194 180 185 190 193 198 201 204 202 198 191 191 195 199 205 208 205 207 220 228 224 229 216 196 208 202 204 214 229 226 235 241 243 252 259 266 262 254 251 256 254
184 185 184 187 190 194 198 200 200 197 192 196 199 199 202 204 207 211 207 216 222 225 229 226 220 216 220 216 214 216 220 228 235 242 243 250 262 275 280 272 263 258
165 196 193 194 197 196 197 198 204 198 197 204 210 214 214 216 213 215 218 221 218 221 229 230 220 217 220 221 224 224 215 214 220 235 231 235 241 248 257 268 277 271
185 193 196 200 195 199 195 199 201 199 202 207 211 221 224 218 223 225 223 221 221 220 223 225 223 223 221 224 225 220 216 217 219 225 233 231 238 244 252 257 260 266
196 193 195 195 201 196 190 186 195 198 201 204 214 218 216 217 228 230 232 225 221 221 227 229 227 227 223 225 223 215 215 215 222 224 224 240 250 254 257 259 263 265
193 194 194 199 199 191 185 190 195 202 202 204 211 214 213 222 227 229 230 224 221 221 230 233 229 233 224 220 219 219 222 214 221 218 227 241 251 262 266 267 263 261
202 191 196 200 197 190 188 198 203 206 205 206 206 208 209 214 220 223 227 223 221 220 226 235 235 234 227 216 212 216 226 220 229 226 235 248 258 257 257 258 262 256
201 194 199 199 195 191 194 203 205 205 207 206 205 213 216 216 226 222 226 221 217 212 220 238 247 224 209 206 204 214 211 209 212 250 279 282 275 265 262 262 260 259
198 196 196 197 193 190 199 204 206 210 214 201 204 212 215 218 223 226 223 206 192 201 212 225 224 218 206 204 204 193 184 200 249 275 278 276 272 273 276 275 273 269
199 195 195 196 190 195 202 207 208 210 210 195 200 210 218 224 222 100 150 170 185 203 200 193 213 212 193 194 182 188 184 195 230 248 272 272 276 278 272 275 283 298
203 199 195 192 193 202 205 207 207 207 208 183 200 208 214 109 131 161 135 168 165 146 147 162 187 218 194 186 189 184 177 180 189 215 265 272 278 285 278 290 305 310
205 200 197 192 199 207 207 208 207 200 187 179 171 151 133 140 139 148 146 146 142 157 183 180 176 179 193 186 166 187 183 170 189 175 228 256 268 283 321 321 310 308